星链-5984 (STARLINK-5984 )

导读

STARLINK-5984是美国太空探索技术公司(SpaceX)旗下星链星座的卫星,于2023年4月27日发射入轨,隶属于Starlink项目。星链旨在构建全球卫星互联网,该卫星是项目批量发射的组网卫星之一,承担为全球偏远区域等提供低延迟宽带互联网接入服务的任务,属于低轨通信卫星。

Basic Information
目录编号:
56329
目录名称:
STARLINK-5984
国际标识:
2023-058N
轨道中心:
EARTH
卫星名称:
星链-5984
卫星全名:
星链-5984 (STARLINK-5984 )
卫星状态:
在轨 (已飞行1226 天)
发射日期:
2023-04-27 UTC
国别 :
美国 (US)
星等 :
--
Orbit Information
数据来源 国际轨道数据
星历时间: 2026-09-03T20:09:11+0800
1天前
查看轨道信息
半长轴: 6843.679km
偏心率: 0.0001779
轨道倾角: 97.284°
近地点辐角 101.491°
升交点赤经 243.544°
平近点角 258.654°
近地点: 464.324km
远地点: 466.76km
周期: 93.906分钟
每日圈数: 15.334457
Detailed Information
固有亮度:
5
最大亮度:
2.5
卫星平台:
Starlink v1.5
覆盖范围:
全球
运营商:
太空探索技术公司
运营商所在国:
美国
制造商(研发单位):
太空探索技术公司
制造商所在国:
美国
使用方式:
暂无
Satellite Introduction
星链(Starlink)计划是由太空探索技术公司(SpaceX)提出的一个巨型低轨卫星互联网星座项目,计划在2019年至2024年间在太空搭建由约1.2万颗卫星组成的“星链”网络,其中1584颗将部署在地球上空550千米处的近地轨道,并从2020年开始工作。该卫星仍在工作。
2D Orbit Map
3D Orbit Map
Orbit Altitude Analysis Chart
Orbit Inclination Analysis Chart
Orbit Comprehensive Analysis Chart
View Comprehensive Chart
Conjunction Data List
Event ID Objects TCA Miss Dist (km) Collision Risk Probability Collision Risk Index (CRI) Action
CDM_260906-053805-632906-969621
2026-09-06T
05:38:56+0000
0.272 km
中距离
5.749587E-4 高风险 0.9
CDM_260906-071205-632906-969621
2026-09-06T
07:12:54+0000
0.755 km
远距离
6.75114E-5 中风险 0.72
CDM_260906-040405-632906-969621
2026-09-06T
04:04:58+0000
1.277 km
极远距离
1.146032E-5 中风险 0.56
CDM_260904-091104-521205-632921
2026-09-04T
09:11:29+0000
1.175 km
极远距离
8.547281E-6 低风险 0.54
CDM_260906-084605-632906-969621
2026-09-06T
08:46:52+0000
1.799 km
极远距离
3.782478E-6 低风险 0.47
CDM_260905-085005-315505-632921
2026-09-05T
08:50:43+0000
1.876 km
极远距离
3.380183E-6 低风险 0.46
CDM_260906-023105-632906-969621
2026-09-06T
02:31:00+0000
2.264 km
极远距离
2.116755E-6 低风险 0.42
CDM_260906-105104-783005-632921
2026-09-06T
10:51:35+0000
2.488 km
极远距离
1.614269E-6 低风险 0.39
CDM_260906-102005-632906-969621
2026-09-06T
10:20:50+0000
2.862 km
极远距离
1.409911E-6 低风险 0.38
CDM_260904-184205-632905-926121
2026-09-04T
18:42:50+0000
2.906 km
极远距离
1.390359E-6 低风险 0.38